星链-11246 (STARLINK-11246)

导读

STARLINK-11246是美国太空探索技术公司SpaceX星链星座的卫星,于北京时间2024年8月31日8时发射入轨,属于星链低轨互联网卫星星座组网卫星,将为全球提供高速低延迟卫星互联网服务,进一步扩充星链星座规模,增强星座覆盖能力和服务容量,支撑星链商用、民用及军事领域服务拓展。

Basic Information
目录编号:
60932
目录名称:
STARLINK-11246
国际标识:
2024-155J
轨道中心:
EARTH
卫星名称:
星链-11246
卫星全名:
星链-11246 (STARLINK-11246)
卫星状态:
在轨 (已飞行741 天)
发射日期:
2024-08-31 UTC
国别 :
美国 (US)
星等 :
--
This satellite is enrolled in the Space Conjunction Data Service (SCDS) and the current flight risk assessment level is: No High Risk
Orbit Information
数据来源 国际轨道数据 AOE轨道数据
星历时间 2026-09-11T10:02:16+0800
11小时前
查看轨道信息
2026-09-05T23:00:00+0800
5天前
查看轨道信息
半长轴 6737.856km 6737.782km
偏心率 0.0001204 0.0000972
轨道倾角 53.160° 53.159°
近地点辐角 86.804° 107.597°
升交点赤经 147.111° 174.025°
平近点角 273.312° 341.102°
近地点 358.907km 358.99km
远地点 360.531km 360.3km
周期 91.737分钟 91.735分钟
每日圈数 15.697129 15.697389
Detailed Information
固有亮度:
5
最大亮度:
2.5
卫星平台:
Starlink V1.0
覆盖范围:
全球
运营商:
太空探索技术公司
运营商所在国:
美国
制造商(研发单位):
太空探索技术公司
制造商所在国:
美国
使用方式:
暂无
Satellite Introduction
Starlink 计划是 SpaceX 推出的全球卫星互联网项目,通过发射低轨道卫星,为全球尤其是偏远地区提供高速、低延迟的互联网服务。自 2019 年起,Starlink 已部署数千颗卫星,旨在缩小全球数字鸿沟,推动互联网普及。该项目还为军事、航空等行业提供通信支持,带来广泛经济效益。
2D Orbit Map
3D Orbit Map
Orbit Altitude Analysis Chart
Orbit Inclination Analysis Chart
Orbit Comprehensive Analysis Chart
View Comprehensive Chart
Conjunction Data List
Event ID Objects TCA Miss Dist (km) Collision Risk Probability Collision Risk Index (CRI) Action
CDM_260913-105106-003806-093221
2026-09-13T
10:51:25+0000
0.803 km
远距离
3.498341E-5 中风险 0.66
CDM_260913-122306-003806-093221
2026-09-13T
12:23:06+0000
1.114 km
极远距离
1.151891E-5 中风险 0.56
CDM_260913-091906-003806-093221
2026-09-13T
09:19:44+0000
2.679 km
极远距离
1.052604E-6 低风险 0.35
Miss Distance Evolution Trend with All Objects
Collision Probability Evolution Trend with All Objects